sat.trackr.live / text

‹ back to catalog

HULIANWANG DIGUI-47

NORAD 65050 · 2025-162H

PAYLOAD ACTIVE UNKNOWN

§ Identity

Operator
Country
PRC
Launch date
2025-07-30
Launch site
WSC
Launch vehicle
Mass (kg)
RCS (m²)

External: N2YO · Heavens-Above · Gunter

§ Orbital elements

Epoch: 2026-05-25T02:27:55.566144Z

Period
108.33 min
Inclination
50.0043°
Eccentricity
0.0000522
Mean motion
13.29323053 rev/d
Perigee alt
1,148.9 km
Apogee alt
1,149.7 km
Semi-major
7,527.5 km
B*
7.6009e-5
RAAN
348.3055°
Arg perigee
43.7554°
Mean anomaly
316.3359°
Rev number
4,029

§ Raw data

HULIANWANG DIGUI-471 65050U 25162H   26145.10272646 -.00000089  00000+0  76009-4 0  99912 65050  50.0043 348.3055 0000522  43.7554 316.3359 13.29323053 40291

JSON: /api/v1/satellites/65050 · /tle

For live sub-satellite position, see the globe view (requires WebGL).

§ Visibility from observer

Set your observer location to see the next 7 days of passes ≥ 10°. The values pass through the URL so the page stays shareable.

No JS? Fill the form by hand. The geolocation button needs JavaScript.